Year,Month,Day,Hour,Minute,Value (Times are PST for temperature in C)
2009,05,29,00,00,11.40
2009,05,29,00,01,11.40
2009,05,29,00,02,11.40
2009,05,29,00,03,11.40
2009,05,29,00,04,11.40
2009,05,29,00,05,11.40
2009,05,29,00,06,11.40
2009,05,29,00,07,11.40
2009,05,29,00,08,11.40
2009,05,29,00,09,11.40
2009,05,29,00,10,11.40
2009,05,29,00,11,11.40
2009,05,29,00,12,11.40
2009,05,29,00,13,11.40
2009,05,29,00,14,11.40
2009,05,29,00,15,11.40
2009,05,29,00,16,11.40
2009,05,29,00,17,11.40
2009,05,29,00,18,11.40
2009,05,29,00,19,11.50
2009,05,29,00,20,11.60
2009,05,29,00,21,11.60
2009,05,29,00,22,11.60
2009,05,29,00,23,11.70
2009,05,29,00,24,11.70
2009,05,29,00,25,11.70
2009,05,29,00,26,11.70
2009,05,29,00,27,11.60
2009,05,29,00,28,11.60
2009,05,29,00,29,11.40
2009,05,29,00,30,11.40
2009,05,29,00,31,11.40
2009,05,29,00,32,11.40
2009,05,29,00,33,11.40
2009,05,29,00,34,11.30
2009,05,29,00,35,11.30
2009,05,29,00,36,11.30
2009,05,29,00,37,11.30
2009,05,29,00,38,11.30
2009,05,29,00,39,11.20
2009,05,29,00,40,11.20
2009,05,29,00,41,11.20
2009,05,29,00,42,11.10
2009,05,29,00,43,11.10
2009,05,29,00,44,11.10
2009,05,29,00,45,11.10
2009,05,29,00,46,11.10
2009,05,29,00,47,11.10
2009,05,29,00,48,11.10
2009,05,29,00,49,11.10
2009,05,29,00,50,11.10
2009,05,29,00,51,11.10
2009,05,29,00,52,11.10
2009,05,29,00,53,11.10
2009,05,29,00,54,11.10
2009,05,29,00,55,11.10
2009,05,29,00,56,11.10
2009,05,29,00,57,11.10
2009,05,29,00,58,11.10
2009,05,29,00,59,11.10
2009,05,29,01,00,11.10
2009,05,29,01,01,11.10
2009,05,29,01,02,11.10
2009,05,29,01,03,11.10
2009,05,29,01,04,11.00
2009,05,29,01,05,10.90
2009,05,29,01,06,10.90
2009,05,29,01,07,10.90
2009,05,29,01,08,10.90
2009,05,29,01,09,10.80
2009,05,29,01,10,10.80
2009,05,29,01,11,10.80
2009,05,29,01,12,10.70
2009,05,29,01,13,10.70
2009,05,29,01,14,10.70
2009,05,29,01,15,10.70
2009,05,29,01,16,10.70
2009,05,29,01,17,10.70
2009,05,29,01,18,10.60
2009,05,29,01,19,10.60
2009,05,29,01,20,10.60
2009,05,29,01,21,10.60
2009,05,29,01,22,10.60
2009,05,29,01,23,10.60
2009,05,29,01,24,10.60
2009,05,29,01,25,10.60
2009,05,29,01,26,10.60
2009,05,29,01,27,10.60
2009,05,29,01,28,10.50
2009,05,29,01,29,10.40
2009,05,29,01,30,10.40
2009,05,29,01,31,10.40
2009,05,29,01,32,10.40
2009,05,29,01,33,10.40
2009,05,29,01,34,10.40
2009,05,29,01,35,10.40
2009,05,29,01,36,10.40
2009,05,29,01,37,10.30
2009,05,29,01,38,10.30
2009,05,29,01,39,10.20
2009,05,29,01,40,10.20
2009,05,29,01,41,10.20
2009,05,29,01,42,10.10
2009,05,29,01,43,10.10
2009,05,29,01,44,10.10
2009,05,29,01,45,10.10
2009,05,29,01,46,10.10
2009,05,29,01,47,10.00
2009,05,29,01,48,9.90
2009,05,29,01,49,9.90
2009,05,29,01,50,9.90
2009,05,29,01,51,9.90
2009,05,29,01,52,9.90
2009,05,29,01,53,9.90
2009,05,29,01,54,9.90
2009,05,29,01,55,9.90
2009,05,29,01,56,9.90
2009,05,29,01,57,9.90
2009,05,29,01,58,9.90
2009,05,29,01,59,9.90
2009,05,29,02,00,9.90
2009,05,29,02,01,9.90
2009,05,29,02,02,9.80
2009,05,29,02,03,9.80
2009,05,29,02,04,9.80
2009,05,29,02,05,9.80
2009,05,29,02,06,9.80
2009,05,29,02,07,9.80
2009,05,29,02,08,9.80
2009,05,29,02,09,9.80
2009,05,29,02,10,9.80
2009,05,29,02,11,9.80
2009,05,29,02,12,9.80
2009,05,29,02,13,9.70
2009,05,29,02,14,9.70
2009,05,29,02,15,9.70
2009,05,29,02,16,9.70
2009,05,29,02,17,9.70
2009,05,29,02,18,9.70
2009,05,29,02,19,9.70
2009,05,29,02,20,9.70
2009,05,29,02,21,9.70
2009,05,29,02,22,9.70
2009,05,29,02,23,9.70
2009,05,29,02,24,9.70
2009,05,29,02,25,9.70
2009,05,29,02,26,9.70
2009,05,29,02,27,9.60
2009,05,29,02,28,9.60
2009,05,29,02,29,9.60
2009,05,29,02,30,9.60
2009,05,29,02,31,9.70
2009,05,29,02,32,9.70
2009,05,29,02,33,9.70
2009,05,29,02,34,9.70
2009,05,29,02,35,9.70
2009,05,29,02,36,9.70
2009,05,29,02,37,9.70
2009,05,29,02,38,9.70
2009,05,29,02,39,9.60
2009,05,29,02,40,9.60
2009,05,29,02,41,9.60
2009,05,29,02,42,9.60
2009,05,29,02,43,9.60
2009,05,29,02,44,9.60
2009,05,29,02,45,9.60
2009,05,29,02,46,9.60
2009,05,29,02,47,9.60
2009,05,29,02,48,9.60
2009,05,29,02,49,9.60
2009,05,29,02,50,9.60
2009,05,29,02,51,9.60
2009,05,29,02,52,9.60
2009,05,29,02,53,9.60
2009,05,29,02,54,9.60
2009,05,29,02,55,9.60
2009,05,29,02,56,9.60
2009,05,29,02,57,9.60
2009,05,29,02,58,9.60
2009,05,29,02,59,9.60
2009,05,29,03,00,9.60
2009,05,29,03,01,9.60
2009,05,29,03,02,9.60
2009,05,29,03,03,9.60
2009,05,29,03,04,9.60
2009,05,29,03,05,9.60
2009,05,29,03,06,9.60
2009,05,29,03,07,9.60
2009,05,29,03,08,9.60
2009,05,29,03,09,9.60
2009,05,29,03,10,9.60
2009,05,29,03,11,9.60
2009,05,29,03,12,9.60
2009,05,29,03,13,9.60
2009,05,29,03,14,9.60
2009,05,29,03,15,9.60
2009,05,29,03,16,9.60
2009,05,29,03,17,9.60
2009,05,29,03,18,9.60
2009,05,29,03,19,9.60
2009,05,29,03,20,9.60
2009,05,29,03,21,9.60
2009,05,29,03,22,9.60
2009,05,29,03,23,9.60
2009,05,29,03,24,9.50
2009,05,29,03,25,9.50
2009,05,29,03,26,9.50
2009,05,29,03,27,9.50
2009,05,29,03,28,9.40
2009,05,29,03,29,9.40
2009,05,29,03,30,9.40
2009,05,29,03,31,9.30
2009,05,29,03,32,9.30
2009,05,29,03,33,9.20
2009,05,29,03,34,9.20
2009,05,29,03,35,9.20
2009,05,29,03,36,9.20
2009,05,29,03,37,9.20
2009,05,29,03,38,9.20
2009,05,29,03,39,9.20
2009,05,29,03,40,9.20
2009,05,29,03,41,9.20
2009,05,29,03,42,9.20
2009,05,29,03,43,9.20
2009,05,29,03,44,9.20
2009,05,29,03,45,9.10
2009,05,29,03,46,9.10
2009,05,29,03,47,9.10
2009,05,29,03,48,9.10
2009,05,29,03,49,9.10
2009,05,29,03,50,9.10
2009,05,29,03,51,9.10
2009,05,29,03,52,9.20
2009,05,29,03,53,9.20
2009,05,29,03,54,9.20
2009,05,29,03,55,9.20
2009,05,29,03,56,9.20
2009,05,29,03,57,9.20
2009,05,29,03,58,9.20
2009,05,29,03,59,9.20
2009,05,29,04,00,9.20
2009,05,29,04,01,9.20
2009,05,29,04,02,9.20
2009,05,29,04,03,9.20
2009,05,29,04,04,9.20
2009,05,29,04,05,9.20
2009,05,29,04,06,9.20
2009,05,29,04,07,9.20
2009,05,29,04,08,9.20
2009,05,29,04,09,9.20
2009,05,29,04,10,9.20
2009,05,29,04,11,9.10
2009,05,29,04,12,9.10
2009,05,29,04,13,9.10
2009,05,29,04,14,9.10
2009,05,29,04,15,9.00
2009,05,29,04,16,9.00
2009,05,29,04,17,9.00
2009,05,29,04,18,8.90
2009,05,29,04,19,8.90
2009,05,29,04,20,8.90
2009,05,29,04,21,8.90
2009,05,29,04,22,8.90
2009,05,29,04,23,8.90
2009,05,29,04,24,9.00
2009,05,29,04,25,9.00
2009,05,29,04,26,9.00
2009,05,29,04,27,9.10
2009,05,29,04,28,9.10
2009,05,29,04,29,9.10
2009,05,29,04,30,9.10
2009,05,29,04,31,9.10
2009,05,29,04,32,9.20
2009,05,29,04,33,9.20
2009,05,29,04,34,9.20
2009,05,29,04,35,9.20
2009,05,29,04,36,9.20
2009,05,29,04,37,9.20
2009,05,29,04,38,9.30
2009,05,29,04,39,9.30
2009,05,29,04,40,9.30
2009,05,29,04,41,9.30
2009,05,29,04,42,9.30
2009,05,29,04,43,9.30
2009,05,29,04,44,9.30
2009,05,29,04,45,9.30
2009,05,29,04,46,9.30
2009,05,29,04,47,9.30
2009,05,29,04,48,9.30
2009,05,29,04,49,9.30
2009,05,29,04,50,9.20
2009,05,29,04,51,9.20
2009,05,29,04,52,9.20
2009,05,29,04,53,9.20
2009,05,29,04,54,9.20
2009,05,29,04,55,9.20
2009,05,29,04,56,9.20
2009,05,29,04,57,9.20
2009,05,29,04,58,9.20
2009,05,29,04,59,9.20
2009,05,29,05,00,9.10
2009,05,29,05,01,9.10
2009,05,29,05,02,9.10
2009,05,29,05,03,9.10
2009,05,29,05,04,9.00
2009,05,29,05,05,9.00
2009,05,29,05,06,9.00
2009,05,29,05,07,9.00
2009,05,29,05,08,8.90
2009,05,29,05,09,8.90
2009,05,29,05,10,8.90
2009,05,29,05,11,8.90
2009,05,29,05,12,8.90
2009,05,29,05,13,8.90
2009,05,29,05,14,8.90
2009,05,29,05,15,8.90
2009,05,29,05,16,8.80
2009,05,29,05,17,8.80
2009,05,29,05,18,8.80
2009,05,29,05,19,8.80
2009,05,29,05,20,8.80
2009,05,29,05,21,8.80
2009,05,29,05,22,8.80
2009,05,29,05,23,8.80
2009,05,29,05,24,8.80
2009,05,29,05,25,8.80
2009,05,29,05,26,8.80
2009,05,29,05,27,8.80
2009,05,29,05,28,8.80
2009,05,29,05,29,8.80
2009,05,29,05,30,8.80
2009,05,29,05,31,8.80
2009,05,29,05,32,8.70
2009,05,29,05,33,8.70
2009,05,29,05,34,8.70
2009,05,29,05,35,8.70
2009,05,29,05,36,8.70
2009,05,29,05,37,8.80
2009,05,29,05,38,8.80
2009,05,29,05,39,8.80
2009,05,29,05,40,8.80
2009,05,29,05,41,8.80
2009,05,29,05,42,8.80
2009,05,29,05,43,8.80
2009,05,29,05,44,8.80
2009,05,29,05,45,8.80
2009,05,29,05,46,8.70
2009,05,29,05,47,8.70
2009,05,29,05,48,8.70
2009,05,29,05,49,8.70
2009,05,29,05,50,8.70
2009,05,29,05,51,8.70
2009,05,29,05,52,8.70
2009,05,29,05,53,8.70
2009,05,29,05,54,8.70
2009,05,29,05,55,8.70
2009,05,29,05,56,8.70
2009,05,29,05,57,8.70
2009,05,29,05,58,8.80
2009,05,29,05,59,8.80
2009,05,29,06,00,8.90
2009,05,29,06,01,8.90
2009,05,29,06,02,9.00
2009,05,29,06,03,9.00
2009,05,29,06,04,9.00
2009,05,29,06,05,9.10
2009,05,29,06,06,9.10
2009,05,29,06,07,9.10
2009,05,29,06,08,9.20
2009,05,29,06,09,9.20
2009,05,29,06,10,9.20
2009,05,29,06,11,9.30
2009,05,29,06,12,9.40
2009,05,29,06,13,9.40
2009,05,29,06,14,9.50
2009,05,29,06,15,9.60
2009,05,29,06,16,9.70
2009,05,29,06,17,9.70
2009,05,29,06,18,9.80
2009,05,29,06,19,9.80
2009,05,29,06,20,9.90
2009,05,29,06,21,9.90
2009,05,29,06,22,10.00
2009,05,29,06,23,10.10
2009,05,29,06,24,10.10
2009,05,29,06,25,10.10
2009,05,29,06,26,10.10
2009,05,29,06,27,10.10
2009,05,29,06,28,10.20
2009,05,29,06,29,10.20
2009,05,29,06,30,10.20
2009,05,29,06,31,10.20
2009,05,29,06,32,10.20
2009,05,29,06,33,10.20
2009,05,29,06,34,10.20
2009,05,29,06,35,10.20
2009,05,29,06,36,10.20
2009,05,29,06,37,10.20
2009,05,29,06,38,10.20
2009,05,29,06,39,10.30
2009,05,29,06,40,10.30
2009,05,29,06,41,10.30
2009,05,29,06,42,10.30
2009,05,29,06,43,10.30
2009,05,29,06,44,10.30
2009,05,29,06,45,10.30
2009,05,29,06,46,10.30
2009,05,29,06,47,10.30
2009,05,29,06,48,10.30
2009,05,29,06,49,10.40
2009,05,29,06,50,10.40
2009,05,29,06,51,10.40
2009,05,29,06,52,10.50
2009,05,29,06,53,10.60
2009,05,29,06,54,10.60
2009,05,29,06,55,10.60
2009,05,29,06,56,10.60
2009,05,29,06,57,10.60
2009,05,29,06,58,10.60
2009,05,29,06,59,10.60
2009,05,29,07,00,10.60
2009,05,29,07,01,10.60
2009,05,29,07,02,10.50
2009,05,29,07,03,10.40
2009,05,29,07,04,10.40
2009,05,29,07,05,10.40
2009,05,29,07,06,10.40
2009,05,29,07,07,10.40
2009,05,29,07,08,10.40
2009,05,29,07,09,10.40
2009,05,29,07,10,10.50
2009,05,29,07,11,10.60
2009,05,29,07,12,10.60
2009,05,29,07,13,10.60
2009,05,29,07,14,10.60
2009,05,29,07,15,10.70
2009,05,29,07,16,10.70
2009,05,29,07,17,10.70
2009,05,29,07,18,10.80
2009,05,29,07,19,10.80
2009,05,29,07,20,10.80
2009,05,29,07,21,10.80
2009,05,29,07,22,10.90
2009,05,29,07,23,10.90
2009,05,29,07,24,11.00
2009,05,29,07,25,11.10
2009,05,29,07,26,11.10
2009,05,29,07,27,11.20
2009,05,29,07,28,11.20
2009,05,29,07,29,11.30
2009,05,29,07,30,11.40
2009,05,29,07,31,11.40
2009,05,29,07,32,11.60
2009,05,29,07,33,11.70
2009,05,29,07,34,11.90
2009,05,29,07,35,12.10
2009,05,29,07,36,12.30
2009,05,29,07,37,12.50
2009,05,29,07,38,12.70
2009,05,29,07,39,12.80
2009,05,29,07,40,13.00
2009,05,29,07,41,13.10
2009,05,29,07,42,13.20
2009,05,29,07,43,13.20
2009,05,29,07,44,13.30
2009,05,29,07,45,13.40
2009,05,29,07,46,13.40
2009,05,29,07,47,13.40
2009,05,29,07,48,13.50
2009,05,29,07,49,13.50
2009,05,29,07,50,13.60
2009,05,29,07,51,13.60
2009,05,29,07,52,13.70
2009,05,29,07,53,13.70
2009,05,29,07,54,13.70
2009,05,29,07,55,13.80
2009,05,29,07,56,13.80
2009,05,29,07,57,13.90
2009,05,29,07,58,14.00
2009,05,29,07,59,14.10
2009,05,29,08,00,14.20
2009,05,29,08,01,14.20
2009,05,29,08,02,14.20
2009,05,29,08,03,14.20
2009,05,29,08,04,14.20
2009,05,29,08,05,14.20
2009,05,29,08,06,14.00
2009,05,29,08,07,14.00
2009,05,29,08,08,13.90
2009,05,29,08,09,13.70
2009,05,29,08,10,13.70
2009,05,29,08,11,13.60
2009,05,29,08,12,13.50
2009,05,29,08,13,13.40
2009,05,29,08,14,13.20
2009,05,29,08,15,13.10
2009,05,29,08,16,13.00
2009,05,29,08,17,12.90
2009,05,29,08,18,12.80
2009,05,29,08,19,12.80
2009,05,29,08,20,12.80
2009,05,29,08,21,12.80
2009,05,29,08,22,12.90
2009,05,29,08,23,13.00
2009,05,29,08,24,13.00
2009,05,29,08,25,13.00
2009,05,29,08,26,13.10
2009,05,29,08,27,13.20
2009,05,29,08,28,13.20
2009,05,29,08,29,13.10
2009,05,29,08,30,13.00
2009,05,29,08,31,12.80
2009,05,29,08,32,12.70
2009,05,29,08,33,12.40
2009,05,29,08,34,12.20
2009,05,29,08,35,11.90
2009,05,29,08,36,11.80
2009,05,29,08,37,11.70
2009,05,29,08,38,11.60
2009,05,29,08,39,11.60
2009,05,29,08,40,11.60
2009,05,29,08,41,11.60
2009,05,29,08,42,11.60
2009,05,29,08,43,11.50
2009,05,29,08,44,11.40
2009,05,29,08,45,11.40
2009,05,29,08,46,11.40
2009,05,29,08,47,11.40
2009,05,29,08,48,11.40
2009,05,29,08,49,11.40
2009,05,29,08,50,11.40
2009,05,29,08,51,11.40
2009,05,29,08,52,11.40
2009,05,29,08,53,11.40
2009,05,29,08,54,11.40
2009,05,29,08,55,11.40
2009,05,29,08,56,11.50
2009,05,29,08,57,11.60
2009,05,29,08,58,11.70
2009,05,29,08,59,11.80
2009,05,29,09,00,11.80
2009,05,29,09,01,11.80
2009,05,29,09,02,11.80
2009,05,29,09,03,11.80
2009,05,29,09,04,11.80
2009,05,29,09,05,11.80
2009,05,29,09,06,11.80
2009,05,29,09,07,11.80
2009,05,29,09,08,11.80
2009,05,29,09,09,11.80
2009,05,29,09,10,11.90
2009,05,29,09,11,12.00
2009,05,29,09,12,12.10
2009,05,29,09,13,12.10
2009,05,29,09,14,12.20
2009,05,29,09,15,12.30
2009,05,29,09,16,12.30
2009,05,29,09,17,12.30
2009,05,29,09,18,12.40
2009,05,29,09,19,12.50
2009,05,29,09,20,12.60
2009,05,29,09,21,12.70
2009,05,29,09,22,12.80
2009,05,29,09,23,12.90
2009,05,29,09,24,13.00
2009,05,29,09,25,13.10
2009,05,29,09,26,13.30
2009,05,29,09,27,13.30
2009,05,29,09,28,13.30
2009,05,29,09,29,13.30
2009,05,29,09,30,13.30
2009,05,29,09,31,13.30
2009,05,29,09,32,13.20
2009,05,29,09,33,13.10
2009,05,29,09,34,13.10
2009,05,29,09,35,13.00
2009,05,29,09,36,12.90
2009,05,29,09,37,12.90
2009,05,29,09,38,12.80
2009,05,29,09,39,12.70
2009,05,29,09,40,12.60
2009,05,29,09,41,12.50
2009,05,29,09,42,12.40
2009,05,29,09,43,12.30
2009,05,29,09,44,12.30
2009,05,29,09,45,12.30
2009,05,29,09,46,12.30
2009,05,29,09,47,12.30
2009,05,29,09,48,12.40
2009,05,29,09,49,12.50
2009,05,29,09,50,12.60
2009,05,29,09,51,12.70
2009,05,29,09,52,12.80
2009,05,29,09,53,12.90
2009,05,29,09,54,13.00
2009,05,29,09,55,13.10
2009,05,29,09,56,13.20
2009,05,29,09,57,13.30
2009,05,29,09,58,13.30
2009,05,29,09,59,13.40
2009,05,29,10,00,13.50
2009,05,29,10,01,13.60
2009,05,29,10,02,13.70
2009,05,29,10,03,13.70
2009,05,29,10,04,13.80
2009,05,29,10,05,13.90
2009,05,29,10,06,14.00
2009,05,29,10,07,14.00
2009,05,29,10,08,14.00
2009,05,29,10,09,14.10
2009,05,29,10,10,14.20
2009,05,29,10,11,14.40
2009,05,29,10,12,14.50
2009,05,29,10,13,14.60
2009,05,29,10,14,14.70
2009,05,29,10,15,14.80
2009,05,29,10,16,15.00
2009,05,29,10,17,15.00
2009,05,29,10,18,15.00
2009,05,29,10,19,15.00
2009,05,29,10,20,14.90
2009,05,29,10,21,14.90
2009,05,29,10,22,14.90
2009,05,29,10,23,14.90
2009,05,29,10,24,14.90
2009,05,29,10,25,14.80
2009,05,29,10,26,14.90
2009,05,29,10,27,14.90
2009,05,29,10,28,14.80
2009,05,29,10,29,14.70
2009,05,29,10,30,14.60
2009,05,29,10,31,14.50
2009,05,29,10,32,14.40
2009,05,29,10,33,14.50
2009,05,29,10,34,14.40
2009,05,29,10,35,14.40
2009,05,29,10,36,14.30
2009,05,29,10,37,14.30
2009,05,29,10,38,14.30
2009,05,29,10,39,14.30
2009,05,29,10,40,14.50
2009,05,29,10,41,14.50
2009,05,29,10,42,14.60
2009,05,29,10,43,14.60
2009,05,29,10,44,14.70
2009,05,29,10,45,14.90
2009,05,29,10,46,14.90
2009,05,29,10,47,14.90
2009,05,29,10,48,14.80
2009,05,29,10,49,14.80
2009,05,29,10,50,14.60
2009,05,29,10,51,14.50
2009,05,29,10,52,14.60
2009,05,29,10,53,14.60
2009,05,29,10,54,14.70
2009,05,29,10,55,14.80
2009,05,29,10,56,15.00
2009,05,29,10,57,15.10
2009,05,29,10,58,15.20
2009,05,29,10,59,15.40
2009,05,29,11,00,15.50
2009,05,29,11,01,15.60
2009,05,29,11,02,15.60
2009,05,29,11,03,15.70
2009,05,29,11,04,15.80
2009,05,29,11,05,15.80
2009,05,29,11,06,16.00
2009,05,29,11,07,16.00
2009,05,29,11,08,15.80
2009,05,29,11,09,15.70
2009,05,29,11,10,15.70
2009,05,29,11,11,15.70
2009,05,29,11,12,15.80
2009,05,29,11,13,15.80
2009,05,29,11,14,15.80
2009,05,29,11,15,15.80
2009,05,29,11,16,15.80
2009,05,29,11,17,15.90
2009,05,29,11,18,16.00
2009,05,29,11,19,16.10
2009,05,29,11,20,16.20
2009,05,29,11,21,16.30
2009,05,29,11,22,16.50
2009,05,29,11,23,16.70
2009,05,29,11,24,16.70
2009,05,29,11,25,16.60
2009,05,29,11,26,16.60
2009,05,29,11,27,16.70
2009,05,29,11,28,16.70
2009,05,29,11,29,16.70
2009,05,29,11,30,16.90
2009,05,29,11,31,16.90
2009,05,29,11,32,17.00
2009,05,29,11,33,17.10
2009,05,29,11,34,17.20
2009,05,29,11,35,17.30
2009,05,29,11,36,17.30
2009,05,29,11,37,17.30
2009,05,29,11,38,17.50
2009,05,29,11,39,17.70
2009,05,29,11,40,17.70
2009,05,29,11,41,17.60
2009,05,29,11,42,17.70
2009,05,29,11,43,17.90
2009,05,29,11,44,18.00
2009,05,29,11,45,18.10
2009,05,29,11,46,18.10
2009,05,29,11,47,18.10
2009,05,29,11,48,18.10
2009,05,29,11,49,18.20
2009,05,29,11,50,18.30
2009,05,29,11,51,18.30
2009,05,29,11,52,18.40
2009,05,29,11,53,18.50
2009,05,29,11,54,18.60
2009,05,29,11,55,18.80
2009,05,29,11,56,18.90
2009,05,29,11,57,19.00
2009,05,29,11,58,19.20
2009,05,29,11,59,19.40
2009,05,29,12,00,19.40
2009,05,29,12,01,19.60
2009,05,29,12,02,19.90
2009,05,29,12,03,20.10
2009,05,29,12,04,20.20
2009,05,29,12,05,20.40
2009,05,29,12,06,20.70
2009,05,29,12,07,20.80
2009,05,29,12,08,20.80
2009,05,29,12,09,20.90
2009,05,29,12,10,21.00
2009,05,29,12,11,21.10
2009,05,29,12,12,21.20
2009,05,29,12,13,21.20
2009,05,29,12,14,21.20
2009,05,29,12,15,21.30
2009,05,29,12,16,21.30
2009,05,29,12,17,21.40
2009,05,29,12,18,21.40
2009,05,29,12,19,21.30
2009,05,29,12,20,21.30
2009,05,29,12,21,21.30
2009,05,29,12,22,21.20
2009,05,29,12,23,21.20
2009,05,29,12,24,21.30
2009,05,29,12,25,21.30
2009,05,29,12,26,21.40
2009,05,29,12,27,21.50
2009,05,29,12,28,21.60
2009,05,29,12,29,21.70
2009,05,29,12,30,21.80
2009,05,29,12,31,21.90
2009,05,29,12,32,21.90
2009,05,29,12,33,21.90
2009,05,29,12,34,21.90
2009,05,29,12,35,21.90
2009,05,29,12,36,21.90
2009,05,29,12,37,21.90
2009,05,29,12,38,21.90
2009,05,29,12,39,22.00
2009,05,29,12,40,22.00
2009,05,29,12,41,22.10
2009,05,29,12,42,22.20
2009,05,29,12,43,22.30
2009,05,29,12,44,22.30
2009,05,29,12,45,22.30
2009,05,29,12,46,22.40
2009,05,29,12,47,22.40
2009,05,29,12,48,22.30
2009,05,29,12,49,22.30
2009,05,29,12,50,22.30
2009,05,29,12,51,22.40
2009,05,29,12,52,22.40
2009,05,29,12,53,22.30
2009,05,29,12,54,22.40
2009,05,29,12,55,22.40
2009,05,29,12,56,22.40
2009,05,29,12,57,22.40
2009,05,29,12,58,22.50
2009,05,29,12,59,22.50
2009,05,29,13,00,22.40
2009,05,29,13,01,22.30
2009,05,29,13,02,22.30
2009,05,29,13,03,22.50
2009,05,29,13,04,22.60
2009,05,29,13,05,22.70
2009,05,29,13,06,22.70
2009,05,29,13,07,22.70
2009,05,29,13,08,22.70
2009,05,29,13,09,22.80
2009,05,29,13,10,22.80
2009,05,29,13,11,22.90
2009,05,29,13,12,22.80
2009,05,29,13,13,22.80
2009,05,29,13,14,22.80
2009,05,29,13,15,22.80
2009,05,29,13,16,22.80
2009,05,29,13,17,22.80
2009,05,29,13,18,22.80
2009,05,29,13,19,22.80
2009,05,29,13,20,22.90
2009,05,29,13,21,22.90
2009,05,29,13,22,22.90
2009,05,29,13,23,22.90
2009,05,29,13,24,22.90
2009,05,29,13,25,22.90
2009,05,29,13,26,22.90
2009,05,29,13,27,23.00
2009,05,29,13,28,23.10
2009,05,29,13,29,23.10
2009,05,29,13,30,23.10
2009,05,29,13,31,23.10
2009,05,29,13,32,23.10
2009,05,29,13,33,23.10
2009,05,29,13,34,23.10
2009,05,29,13,35,23.10
2009,05,29,13,36,23.20
2009,05,29,13,37,23.20
2009,05,29,13,38,23.10
2009,05,29,13,39,23.10
2009,05,29,13,40,23.20
2009,05,29,13,41,23.10
2009,05,29,13,42,23.00
2009,05,29,13,43,23.00
2009,05,29,13,44,23.10
2009,05,29,13,45,23.10
2009,05,29,13,46,23.10
2009,05,29,13,47,23.10
2009,05,29,13,48,23.10
2009,05,29,13,49,23.00
2009,05,29,13,50,22.90
2009,05,29,13,51,22.90
2009,05,29,13,52,22.80
2009,05,29,13,53,22.70
2009,05,29,13,54,22.60
2009,05,29,13,55,22.60
2009,05,29,13,56,22.70
2009,05,29,13,57,22.70
2009,05,29,13,58,22.70
2009,05,29,13,59,22.60
2009,05,29,14,00,22.60
2009,05,29,14,01,22.50
2009,05,29,14,02,22.50
2009,05,29,14,03,22.40
2009,05,29,14,04,22.30
2009,05,29,14,05,22.30
2009,05,29,14,06,22.20
2009,05,29,14,07,22.30
2009,05,29,14,08,22.30
2009,05,29,14,09,22.30
2009,05,29,14,10,22.30
2009,05,29,14,11,22.30
2009,05,29,14,12,22.30
2009,05,29,14,13,22.20
2009,05,29,14,14,22.20
2009,05,29,14,15,22.10
2009,05,29,14,16,22.10
2009,05,29,14,17,22.10
2009,05,29,14,18,22.00
2009,05,29,14,19,22.00
2009,05,29,14,20,22.00
2009,05,29,14,21,22.00
2009,05,29,14,22,22.10
2009,05,29,14,23,22.10
2009,05,29,14,24,22.10
2009,05,29,14,25,22.10
2009,05,29,14,26,22.10
2009,05,29,14,27,22.10
2009,05,29,14,28,22.20
2009,05,29,14,29,22.20
2009,05,29,14,30,22.20
2009,05,29,14,31,22.10
2009,05,29,14,32,22.10
2009,05,29,14,33,22.10
2009,05,29,14,34,22.00
2009,05,29,14,35,22.00
2009,05,29,14,36,22.00
2009,05,29,14,37,22.00
2009,05,29,14,38,22.10
2009,05,29,14,39,22.10
2009,05,29,14,40,22.10
2009,05,29,14,41,22.10
2009,05,29,14,42,22.10
2009,05,29,14,43,22.20
2009,05,29,14,44,22.20
2009,05,29,14,45,22.10
2009,05,29,14,46,22.10
2009,05,29,14,47,22.00
2009,05,29,14,48,22.00
2009,05,29,14,49,22.10
2009,05,29,14,50,22.10
2009,05,29,14,51,22.10
2009,05,29,14,52,22.00
2009,05,29,14,53,22.00
2009,05,29,14,54,22.10
2009,05,29,14,55,22.10
2009,05,29,14,56,22.10
2009,05,29,14,57,22.00
2009,05,29,14,58,21.90
2009,05,29,14,59,21.90
2009,05,29,15,00,21.90
2009,05,29,15,01,21.90
2009,05,29,15,02,21.90
2009,05,29,15,03,21.90
2009,05,29,15,04,21.80
2009,05,29,15,05,21.80
2009,05,29,15,06,21.80
2009,05,29,15,07,21.80
2009,05,29,15,08,21.70
2009,05,29,15,09,21.70
2009,05,29,15,10,21.60
2009,05,29,15,11,21.60
2009,05,29,15,12,21.60
2009,05,29,15,13,21.60
2009,05,29,15,14,21.60
2009,05,29,15,15,21.50
2009,05,29,15,16,21.50
2009,05,29,15,17,21.60
2009,05,29,15,18,21.60
2009,05,29,15,19,21.60
2009,05,29,15,20,21.50
2009,05,29,15,21,21.40
2009,05,29,15,22,21.40
2009,05,29,15,23,21.30
2009,05,29,15,24,21.30
2009,05,29,15,25,21.30
2009,05,29,15,26,21.30
2009,05,29,15,27,21.30
2009,05,29,15,28,21.30
2009,05,29,15,29,21.30
2009,05,29,15,30,21.30
2009,05,29,15,31,21.30
2009,05,29,15,32,21.30
2009,05,29,15,33,21.30
2009,05,29,15,34,21.30
2009,05,29,15,35,21.30
2009,05,29,15,36,21.30
2009,05,29,15,37,21.30
2009,05,29,15,38,21.30
2009,05,29,15,39,21.30
2009,05,29,15,40,21.30
2009,05,29,15,41,21.30
2009,05,29,15,42,21.30
2009,05,29,15,43,21.30
2009,05,29,15,44,21.30
2009,05,29,15,45,21.30
2009,05,29,15,46,21.30
2009,05,29,15,47,21.30
2009,05,29,15,48,21.30
2009,05,29,15,49,21.20
2009,05,29,15,50,21.10
2009,05,29,15,51,21.10
2009,05,29,15,52,21.00
2009,05,29,15,53,21.00
2009,05,29,15,54,21.00
2009,05,29,15,55,21.00
2009,05,29,15,56,20.90
2009,05,29,15,57,20.90
2009,05,29,15,58,20.80
2009,05,29,15,59,20.80
2009,05,29,16,00,20.70
2009,05,29,16,01,20.60
2009,05,29,16,02,20.60
2009,05,29,16,03,20.60
2009,05,29,16,04,20.70
2009,05,29,16,05,20.70
2009,05,29,16,06,20.70
2009,05,29,16,07,20.70
2009,05,29,16,08,20.80
2009,05,29,16,09,20.90
2009,05,29,16,10,21.00
2009,05,29,16,11,21.00
2009,05,29,16,12,21.00
2009,05,29,16,13,21.10
2009,05,29,16,14,21.00
2009,05,29,16,15,21.00
2009,05,29,16,16,20.90
2009,05,29,16,17,20.90
2009,05,29,16,18,21.00
2009,05,29,16,19,21.00
2009,05,29,16,20,21.00
2009,05,29,16,21,21.00
2009,05,29,16,22,21.00
2009,05,29,16,23,20.90
2009,05,29,16,24,21.00
2009,05,29,16,25,21.00
2009,05,29,16,26,21.00
2009,05,29,16,27,21.00
2009,05,29,16,28,21.00
2009,05,29,16,29,21.00
2009,05,29,16,30,21.00
2009,05,29,16,31,20.90
2009,05,29,16,32,20.90
2009,05,29,16,33,20.80
2009,05,29,16,34,20.70
2009,05,29,16,35,20.70
2009,05,29,16,36,20.60
2009,05,29,16,37,20.60
2009,05,29,16,38,20.70
2009,05,29,16,39,20.70
2009,05,29,16,40,20.70
2009,05,29,16,41,20.50
2009,05,29,16,42,20.40
2009,05,29,16,43,20.30
2009,05,29,16,44,20.30
2009,05,29,16,45,20.20
2009,05,29,16,46,20.20
2009,05,29,16,47,20.20
2009,05,29,16,48,20.20
2009,05,29,16,49,20.20
2009,05,29,16,50,20.20
2009,05,29,16,51,20.20
2009,05,29,16,52,20.10
2009,05,29,16,53,20.10
2009,05,29,16,54,20.10
2009,05,29,16,55,20.20
2009,05,29,16,56,20.10
2009,05,29,16,57,20.00
2009,05,29,16,58,19.90
2009,05,29,16,59,19.80
2009,05,29,17,00,19.70
2009,05,29,17,01,19.60
2009,05,29,17,02,19.60
2009,05,29,17,03,19.70
2009,05,29,17,04,19.60
2009,05,29,17,05,19.60
2009,05,29,17,06,19.50
2009,05,29,17,07,19.30
2009,05,29,17,08,19.20
2009,05,29,17,09,19.10
2009,05,29,17,10,19.00
2009,05,29,17,11,18.90
2009,05,29,17,12,18.90
2009,05,29,17,13,18.80
2009,05,29,17,14,18.70
2009,05,29,17,15,18.70
2009,05,29,17,16,18.60
2009,05,29,17,17,18.50
2009,05,29,17,18,18.50
2009,05,29,17,19,18.50
2009,05,29,17,20,18.40
2009,05,29,17,21,18.30
2009,05,29,17,22,18.20
2009,05,29,17,23,18.20
2009,05,29,17,24,18.20
2009,05,29,17,25,18.20
2009,05,29,17,26,18.10
2009,05,29,17,27,18.00
2009,05,29,17,28,17.90
2009,05,29,17,29,17.90
2009,05,29,17,30,17.90
2009,05,29,17,31,17.80